Погода Кокшетау

Погода Кокшетау : погода сейчас, прогноз погоды и архив. Всё, что Вы хотите узнать о погоде Кокшетау!

Хотите узнать прогноз погоды в Кокчетаве? Тогда Вам сюда: Погода в Кокчетаве

Поиск расширенной информации на нашем сайте:

Другие новости

Новости СМИ2

Главная страница сайта

Новости сайта

03.07.2017

Напоминаем, что на нашем специализированном сайте Метеоцентр.Азия вы можете получить высокодетализированные автоматические прогнозы погоды по пунктам России, СНГ и мира в авиационном формате (включающие направление и скорость ветра, видимость, явления погоды, количество и форму облачности, нижнюю и верхнюю границу облачности).


Погода Кокшетау - сегодня

Время (UTC), дата Ветер
(°,м/с) 
Видим.   Явления Облачность Т
(°С)
Тd
(°С)
f(%) Тe
(°С)
Pmin
(гПа)
dP
(гПа)
Po
(мм)
O2
(г/м3)
Тmin Tmax R s Состояние
почвы
00 09.12.17 100 (В) н/о    8/0 верхняя 
[Ci fib]
-4.6 -9.7 67 -8  1008.6  -2.9  735  302           
03 09.12.17 110 (В) н/о    10/10 600 м кучево-дожд. 
[Cb cap]
-4.5 -10 65 -9  1007.7  -0.9  734  302           
06 09.12.17 100 (В) 20000 м  дым  10/5 1000 м средняя, верхняя 
[Sc|Ac und|Ci]
-3.4 -8.5 68 -5  1006.4  -1.2  733  300  -5.8         
09 09.12.17 210 (ЮЗ) 20000 м    10/8 600 м кучево-дожд., средняя 
[Cb cap|Ac As]
-1.4 -5.4 74 -5  1007.4  1.2  734  298           
12 09.12.17 190 (Ю) н/о    10/6 600 м средняя 
[Sc|Ac As]
-2.4 -7.1 70 -7  1008.7  1.2  735  299           
15 09.12.17 200 (Ю) н/о  {ливн. осадки}  10/10 1000 м 
[Sc]
-3.5 -6.7 78 -7  1010.2  1.3  736  301    -1.1  0.0     
18 09.12.17 190 (Ю) н/о  {ливн. осадки}  10/10 600 м 
[Sc]
-3.2 -7.8 70 -8  1010.8  0.6  736  301    -1.1  0.0     
21 09.12.17 190 (Ю) н/о    8/8 1000 м 
[Sc]
-5.4 -9.1 75 -9  1011.5  0.5  737  304           
00 10.12.17 160 (Ю) н/о    10/10 600 м 
[Sc]
-5.3 -9 75 -5  1012.1  0.6  737  304           
03 10.12.17 130 (ЮВ) н/о    10/3 600 м средняя, верхняя 
[Sc|Ac As|Cs]
-6 -9.5 76 -9  1012.7  0.5  738  305           
06 10.12.17 150 (ЮВ) 20000 м    10/0 средняя, верхняя 
[Ac lent|Cc]
-5.6 -9 77 -8  1013.5  0.8  738  305  -6.2         
09 10.12.17 190 (Ю) 20000 м    3/0 верхняя 
[Cs]
-5.4 -9.1 75 -8  1013  -0.5  738  304           
12 10.12.17 тихо ()   н/о    4/0 средняя 
[Ac und]
-8.2 -10.9 81 -8  1014.7  1.4  739  308           
15 10.12.17 250 (З) н/о    3/0 средняя 
[Ac und]
-11.2 -13.4 84 -13  1016.6  1.5  740  312    -4.2       
18 10.12.17 250 (З) н/о  снежные кристаллы  ясно 
-9.1 -10.7 88 -11  1017.1  0.7  741  310    -4.2       
21 10.12.17 280 (З) н/о  слаб. снег  10/0 средняя 
[As op]
-7.5 -8.8 90 -11  1018.2  1.3  742  308           
00 11.12.17 240 (ЮЗ) н/о  слаб. снег  10/0 средняя 
[As op]
-6.8 -8 91 -12  1019.7  1.5  743  308           
03 11.12.17 300 (СЗ) н/о  слаб. снег  10/0 средняя 
[As op]
-8.2 -9.2 92 -13  1021.8  1.9  744  310      равномерный
сухой снег
100% 
09 11.12.17 290 (З) 4000 м  слаб. ливневой снег  10/10 300 м кучево-дожд. 
[Cb cap]
-8.7 -11.5 80 -14  1024.6  746  312           
12 11.12.17 300 (СЗ) н/о  слаб. снег{ливн. осадки}  10/0 средняя 
[As op]
-11.6 -14.1 82 -15  1027.3  2.3  748  316           
18 11.12.17 280 (З) н/о  слаб. снег  10/6 300 м средняя 
[Frnb|As op]
-13.1 -14.9 86 -18  1030.1  1.2  750  319    -8.1  0.5     
21 11.12.17 300 (СЗ) н/о  слаб. снег  10/8 300 м средняя 
[Frnb|As op]
-13.3 -15.3 85 -15  1031.5  1.3  751  319           
00 12.12.17 270 (З) н/о  слаб. снег  10/5 300 м средняя 
[Frnb|As trans]
-15.5 -17.5 85 -16  1033.2  1.4  752  323           
03 12.12.17 260 (З) н/о  слаб. снег  10/4 300 м средняя 
[Frnb|As op]
-17.6 -19.4 86 -18  1035.5  753  326      0.4  равномерный
сухой снег
100% 
09 12.12.17 тихо ()   20000 м  {снег}  10/0 средняя 
[As trans]
-13.6 -17.6 72 -14  1037.7  755  322           
Время (UTC), дата Ветер
(°,м/с) 
Видим.   Явления Облачность Т
(°С)
Тd
(°С)
f(%) Тe
(°С)
Pmin
(гПа)
dP
(гПа)
Po
(мм)
O2
(г/м3)
Тmin Tmax R s Состояние
почвы

Для получения пояснительной информации подведите курсор к названию столбца.

ПОГОДА Кокшетау - архив

Всё, что Вы хотите узнать о погоде Кокшетау - удобно и подробно!

Выберите нужную дату (начиная с 1 января 2015* года) и нажмите кнопку "Найти".
Будут отображены архивные сводки погоды по пункту Кокшетау, начиная с указанной даты.


Отображать данные в формате CSV (для использования в таблицах Excel)


Внимание! Наш архив погоды предназначен исключительно для личного некоммерческого использования в познавательных целях. Если Вам необходимы официальные справки о состоянии погоды (для производственных, юридических, коммерческих и т.п. целей), обращайтесь в органы Росгидромета.

*Примечание: данная дата относится к архиву по метеостанциям СССР (Россия, СНГ, Балтия).
Архив по метеостанциям Зарубежной Европы и Азии (кроме Китая) хранится 10 дней, по другим регионам земного шара (Китай, Африка, Америка, Австралия, Океания) - 1 день.

Кокшетау - район местоположения метеостанции


Название, широта, долгота, высота метеостанции:
Кокшетау 53.3°ш. 69.4°д. 229 м над ур. моря [Казахстан]

Дополнительная информация

В oтличие oт бoльшинства пoгoдных сайтoв мы публикуем пoдрoбную метеoинфoрмацию в детальнoм прoфессиoнальнoм фoрмате.

Характеристики температуры и влажнoсти вoздуха измеряются на высoте 2 м в тени вдали oт зданий и деревьев.
Скoрoсть ветра измеряется на высoте 10 м (на урoвне рoста челoвека скoрoсть ветра ниже в 1.5-2 раза). Если метеoстанция нахoдится в гoрoде или в лесу, тo скoрoсть ветра занижена на 2-4 м/с пo сравнению с oткрытым местoм. Скoрoсть ветра над акватoриями крупных рек и oзёр, а также на вершинах хoлмoв на 2-5 м/с выше, чем в oбычных услoвиях.
Атмoсфернoе давление в разных тoчках местнoсти мoжет значительнo oтличаться oт давления на метеoстанции, в зависимoсти oт услoвий рельефа (при пoдъёме на 10 м давление пoнижается примернo на 1 мм рт.ст.).